Regional Weather Roundup
Issued by NWS Wilmington, NC

Home | Current Version | Previous Version | Text Only | Print | Product List | Glossary On
Versions: 1 2 3 4 5 6 7 8 9 10 11 12 13 14 15 16 17 18 19 20 21 22 23 24 25 26 27 28 29 30 31 32 33 34 35 36 37 38 39 40 41 42 43 44 45 46 47 48 49 50
726
ASUS42 KILM 061513
RWRILM
RWRILM
REGIONAL HOURLY WEATHER ROUNDUP
NATIONAL WEATHER SERVICE WILMINGTON NC
1100 AM EDT FRI MAY 06 2016

NOTE: "FAIR" INDICATES FEW OR NO CLOUDS BELOW 12,000 FEET WITH NO
SIGNIFICANT WEATHER AND/OR OBSTRUCTIONS TO VISIBILITY.

...............WFO WILMINGTON COUNTY WARNING AREA...............

......COASTAL NC AND SC COUNTIES......

CITY           SKY/WX    TMP DP  RH WIND       PRES   REMARKS
WILMINGTON     PTSUNNY   59  48  67 W14       29.76R
N MYRTLE BEACH PTSUNNY   60  50  69 NW8G17    29.78R
MYRTLE BEACH   PTSUNNY   57  45  62 NW9       29.80S

......INLAND NC AND SC COUNTIES.......

CITY           SKY/WX    TMP DP  RH WIND       PRES   REMARKS
LUMBERTON      CLOUDY    62  48  60 NW10G22   29.76S
ELIZABETHTOWN  CLOUDY    57  47  68 NW8       29.77R
WHITEVILLE     NOT AVBL
FLORENCE       PTSUNNY   65  50  58 NW8       29.80R
DARLINGTON     PTSUNNY   63  51  65 NW10      29.80R
KINGSTREE      FAIR      63  46  55 NW10      29.81R
HARTSVILLE     FAIR      61  45  55 NW5       29.80R
BENNETTSVILLE  PTSUNNY   64  52  63 W9        29.79R
CONWAY         FAIR      61  48  63 W7        29.79S HAZE
GEORGETOWN     FAIR      61  46  59 NW10G18   29.81S
MARION         FAIR      61  50  67 NW9G16    29.79S

....................REST OF NORTH CAROLINA......................

.........EASTERN NC.........

CITY           SKY/WX    TMP DP  RH WIND       PRES   REMARKS
CAPE HATTERAS  PTSUNNY   57  49  74 W15G22    29.71R
JACKSONVILLE   CLOUDY    59  50  72 W8        29.74R
MOREHEAD CITY  CLOUDY    56  50  80 W10       29.73R
KENANSVILLE    CLOUDY    57  48  71 W7        29.75S
NEW BERN       LGT RAIN  54  51  90 W10       29.74R FOG
ELIZABETH CITY CLOUDY    56  49  77 CALM      29.69S

.........CENTRAL NC.........

CITY           SKY/WX    TMP DP  RH WIND       PRES   REMARKS
RALEIGH DURHAM PTSUNNY   58  50  75 VRB6      29.74R
ROCKY MOUNT    CLOUDY    56  51  84 W6        29.72R
ROANOKE RAPIDS NOT AVBL
FAYETTEVILLE   CLOUDY    60  49  66 NW13      29.76R
HOFFMAN        PTSUNNY   61  50  65 NW12      29.77R

.........WESTERN NC.........

CITY           SKY/WX    TMP DP  RH WIND       PRES   REMARKS
CHARLOTTE      MOSUNNY   64  47  53 NW13G18   29.82R
GREENSBORO     PTSUNNY   61  48  62 N8G16     29.76R
HICKORY        NOT AVBL
BOONE          NOT AVBL
ASHEVILLE      NOT AVBL

.....................REST OF SOUTH CAROLINA.....................

.........EASTERN SC.........

CITY           SKY/WX    TMP DP  RH WIND       PRES   REMARKS
CHARLESTON     MOSUNNY   65  46  50 NW13G23   29.82F
BEAUFORT MCAS  MOSUNNY   65  46  50 W12       29.86S
HILTON HEAD    SUNNY     66  45  45 W9G18     29.88

.........CENTRAL SC.........

CITY           SKY/WX    TMP DP  RH WIND       PRES   REMARKS
COLUMBIA       MOSUNNY   67  44  43 NW14      29.83R
ORANGEBURG     SUNNY     65  46  50 NW12G17   29.84R
SUMTER SHAW    MOSUNNY   65  48  53 NW13      29.80R

.........WESTERN SC.........

CITY           SKY/WX    TMP DP  RH WIND       PRES   REMARKS
GREENVILLE     NOT AVBL
ROCK HILL      SUNNY     64  48  56 NW13G20   29.82R
ANDERSON       SUNNY     65  39  38 NW10      29.87R
CLEMSON        NOT AVBL
GREENWOOD      SUNNY     64  42  44 NW8G18    29.88R


...................COASTAL AND OFFSHORE REPORTS..................

................LOCAL PIERS AND NC RESERVE................


STATION/POSITION TIME  SKY/WX   TEMP    WIND        PRES    VSBY
                                AIR SEA DIR/SP/G
                 (UTC)          (F)     (DEG/KT/KT) (MB)    (MI)
JOHNY MRCER PIER 1400            55 68  270/  7/ 12 1006.2R
NC RESRV MASNBRO NOT AVBL
OCEAN CREST PIER NOT AVBL
SPRINGMAID  PIER 1400            58 69  280/  9/ 13 1008.0R


................COASTAL AND OFFSHORE BUOYS................


STATION/POSITION TIME  SKY/WX   TEMP    WIND        PRES    VSBY
                                AIR SEA DIR/SP/G
                 (UTC)          (F)     (DEG/KT/KT) (MB)    (MI)
DIMNDSHOAL 41025 1450            61 76  240/ 17/ 23 1005.8
WVE H/P(F/S)=  5/ 9 SWL H/P/D(F/S/D)=  5/ 90/ 9

CAPE LOOKOUT     1500            56     270/ 12/ 14 1006.3R
ONSLOW BAY 41036 NOT AVBL
ONSLOW BAY 41064 NOT AVBL
ONSLOW BAY 41159 1425               72                N/A
WVE H/P(F/S)=  5/ 7

5SE WRITBC 41038 1408            56 69  290/ 12/ 16 1007.9R
MASNBO INL 41110 1406               69                N/A
WVE H/P(F/S)=  2/10

WILM HARBR 41108 1426               69                N/A
WVE H/P(F/S)=  4/ 7

27SE WRITB 41037 1408            57 72  280/ 14/ 17 1007.4R
FRYING PAN 41013 1400            58 72  290/ 16/ 19 1007.9R
SUNST NRSH 41024 1408            56 69  310/ 12/ 16 1007.6R
CAPRS NRSH 41029 1408            59 69  290/ 12/ 17 1009.5R
EDISTO     41004 1450            60 72  300/ 16/ 19 1009.2
WVE H/P(F/S)=  4/ 4



..........OFFSHORE BUOYS BEYOND 100 NM OFFSHORE...........
.....IN A TRIANGLE---HAT TO BERMUDA TO BAHAMAS TO HAT.....


STATION/POSITION TIME  SKY/WX   TEMP    WIND        PRES    VSBY
                                AIR SEA DIR/SP/G
                 (UTC)          (F)     (DEG/KT/KT) (MB)    (MI)
150E HAT   41001 NOT AVBL
W BERMUDA  41048 1450            71 70  220/  6/  6 1010.6
WVE H/P(F/S)=  7/ 8 SWL H/P/D(F/S/D)=  7/180/ 8

ATLANTIC S 41049 1450            77 76  140/ 19/ 23 1017.1
WVE H/P(F/S)=  7/ 7 SWL H/P/D(F/S/D)=  2/ 60/13

E BAHAMAS  41046 1450            77 79  170/ 19/ 21 1013.2
WVE H/P(F/S)=  6/ 7 SWL H/P/D(F/S/D)=  2/ 50/ 9

NE BAHAMAS 41047 NOT AVBL
120E CANVRL41010 1420            72 79  290/ 14/ 17 1010.4R

END




USA.gov is the U.S. government's official web portal to all federal, state and local government web resources and services.